Regional Weather Roundup
Issued by NWS

Home | Current Version | Previous Version | Graphics & Text | Print | Product List | Glossary Off
Versions: 1 2 3 4 5 6 7 8 9 10 11 12 13 14 15 16 17 18 19 20 21 22 23 24 25 26 27 28 29 30 31 32 33 34 35 36 37 38 39 40 41 42 43 44 45 46 47 48 49 50

000
ASUS43 KMKX 220500
RWRWI

WISCONSIN REGIONAL WEATHER ROUNDUP
NATIONAL WEATHER SERVICE MILWAUKEE/SULLIVAN WI
1100 PM CST FRI NOV 21 2014

NOTE: "FAIR" INDICATES FEW OR NO CLOUDS BELOW 12,000 FEET WITH NO
SIGNIFICANT WEATHER AND/OR OBSTRUCTIONS TO VISIBILITY.

WIZ001-002-006>008-014>016-023>028-220600-
NORTHWEST WISCONSIN

CITY           SKY/WX    TMP DP  RH WIND       PRES   REMARKS
SUPERIOR ARPT  CLOUDY    30  22  73 SW14      29.78F WCI  19
ASHLAND        MOCLDY    29  19  66 S18G30    29.80F WCI  16
HAYWARD        MOCLDY    26  18  71 S16G24    29.84F WCI  14
SIREN          MOCLDY    30  23  75 SW14G22   29.85F WCI  19
CUMBERLAND     CLOUDY    28  23  80 S13       29.87F WCI  18
RICE LAKE      MOCLDY    28  22  78 S9G16     29.91S WCI  20
CHETEK         CLOUDY    28  22  78 S8        29.91S WCI  20
LADYSMITH      CLOUDY    27  20  73 S14G21    29.91F WCI  16
EAU CLAIRE     NOT AVBL
MENOMONIE      CLOUDY    31  24  75 S14G21    29.93S WCI  21
NEW RICHMOND   CLOUDY    31  26  80 SW15G22   29.90S WCI  20
OSCEOLA        CLOUDY    31  26  81 S12G17    29.91F WCI  21
$$

WIZ003>005-009-010-017-018-220600-
NORTH CENTRAL WISCONSIN

CITY           SKY/WX    TMP DP  RH WIND       PRES   REMARKS
MANITOWISH WTR MOCLDY    25  16  70 S16       29.83F WCI  12
ARBOR VITAE    MOCLDY    25  15  66 SW13      29.85F WCI  13
WOODRUFF       MOCLDY    25  15  66 SW13      29.85F WCI  13
RHINELANDER    MOCLDY    24  15  68 SW14G22   29.88F WCI  12
EAGLE RIVER    CLOUDY    25  13  61 SW10G16   29.85F WCI  15
LAND O LAKES   CLOUDY    25  15  65 SW12G17   29.83F WCI  14
PHILLIPS       MOCLDY    25  17  72 S14G20    29.87F WCI  13
TOMAHAWK       MOCLDY    25  16  68 S6        29.91F WCI  18
MEDFORD        CLOUDY    25  17  69 S12G20    29.92F WCI  15
MERRILL        CLOUDY    27  16  63 SW12G20   29.94F WCI  16
$$

WIZ029-030-035-036-043>047-220600-
CENTRAL WISCONSIN

CITY           SKY/WX    TMP DP  RH WIND       PRES   REMARKS
WAUSAU         CLOUDY    27  14  58 S13       29.95S WCI  16
MOSINEE        CLOUDY    27  16  63 S18G24    29.96F WCI  13
MARSHFIELD     CLOUDY    29  17  61 SW12      29.95F WCI  19
STEVENS POINT  CLOUDY    26  12  55 S12       29.99F WCI  16
WAUPACA        CLOUDY    31  13  47 S8        30.03F WCI  24
WAUTOMA        NOT AVBL
WISC RAPIDS    CLOUDY    30  14  51 S15       30.00F WCI  19
CAMP DOUGLAS   NOT AVBL
$$

WIZ011>013-019>022-031-037>040-048>050-220600-
NORTHEAST WISCONSIN

CITY           SKY/WX    TMP DP  RH WIND       PRES   REMARKS
ANTIGO         CLOUDY    24  15  66 SW17      29.94F WCI  11
SHAWANO        CLOUDY    30  12  47 SW7       30.01F WCI  23
OCONTO         CLOUDY    30  10  42 SW12G22   30.03F WCI  20
STURGEON BAY   CLOUDY    28   9  43 S14G23    30.03F WCI  17
GREEN BAY      CLOUDY    30  14  51 S15G22    30.03F WCI  19
MANITOWOC      MOCLDY    30  10  43 S13       30.08F WCI  20
APPLETON       CLOUDY    28  12  50 S17       30.04F WCI  16
CLINTONVILLE   CLOUDY    30  14  51 S12       30.02F WCI  21
OSHKOSH        CLOUDY    30  13  49 S21       30.05F WCI  17
$$

WIZ032>034-041-042-053>061-220600-
SOUTHWEST WISCONSIN

CITY           SKY/WX    TMP DP  RH WIND       PRES   REMARKS
LA CROSSE      CLOUDY    34  22  61 S12       30.00F WCI  25
SPARTA         CLOUDY    32  18  57 SW9G17    30.03F WCI  24
VIROQUA        CLOUDY    31  20  64 S12       30.02F WCI  22
BOSCOBEL       CLOUDY    34  16  47 S8G20     30.09F WCI  27
PRAIRIE DU CHI CLOUDY    33  16  48 E3        30.08S
PLATTEVILLE    CLOUDY    31  21  67 S15       30.10F WCI  20
$$

WIZ056-057-062-063-064-067-068-220600-
SOUTH CENTRAL WISCONSIN

CITY           SKY/WX    TMP DP  RH WIND       PRES   REMARKS
REEDSBURG      CLOUDY    32  17  53 SW12G18   30.05F WCI  23
BARABOO/DELLS  CLOUDY    32  16  52 S17G24    30.04F WCI  20
LONE ROCK      NOT AVBL
MINERAL POINT  CLOUDY    32  18  55 S14       30.07F WCI  22
MADISON        CLOUDY    32  13  45 S15G22    30.10F WCI  22
MIDDLETON      CLOUDY    33  13  44 S14       30.09F WCI  23
WATERTOWN      CLOUDY    30  14  51 S12       30.11F WCI  21
MONROE         CLOUDY    32  18  55 S17G23    30.10F WCI  21
JANESVILLE     CLOUDY    34  12  40 S16       30.13F WCI  23
$$

WIZ051-052-058>065-066-070>072-220600-
SOUTHEAST WISCONSIN

CITY           SKY/WX    TMP DP  RH WIND       PRES   REMARKS
MILWAUKEE      CLOUDY    32  10  40 S16       30.13F WCI  21
WAUKESHA       CLOUDY    30  12  47 S13G18    30.12F WCI  20
MILWAUKEE/TIMM CLOUDY    30   9  40 S9        30.13F WCI  22
RACINE         CLOUDY    33  10  38 S12G22    30.16F WCI  24
BURLINGTON     CLOUDY    30  13  49 S17       30.14F WCI  18
KENOSHA        CLOUDY    33  11  39 S17       30.15F WCI  22
FOND DU LAC    CLOUDY    30  13  49 S18G26    30.06F WCI  18
SHEBOYGAN      CLOUDY    30  10  43 S14       30.09F WCI  19
WEST BEND      CLOUDY    30  10  43 S9        30.10F WCI  22
JUNEAU         CLOUDY    29  14  52 S13       30.11F WCI  19
$$

LSZ147-162-220600-
LAKE SUPERIOR

STATION/POSITION TIME  TEMP    WIND        PRES    WAVE
                       AIR SEA DIR/SP/G            HT/PER
                 (UTC) (F)     (DEG/KT/KT) (MB)    (FT/S)
DEVILS ISLAND    0400   33     230/ 21/ 25 1008.6F
PORT WING        0400   29     200/ 16/ 22 1009.1F
SAXON HARBOR     0420   32     210/ 15     1008.8S
$$

LMZ867-665-643>646-220600-
LAKE MICHIGAN

STATION/POSITION TIME  TEMP    WIND        PRES    WAVE
                       AIR SEA DIR/SP/G            HT/PER
                 (UTC) (F)     (DEG/KT/KT) (MB)    (FT/S)
CHAMBERS ISLAND  0400   31     190/ 11/ 28 1016.9F
N MID LAKE BUOY  0250   37 42  210/ 31/ 39 1018.5F  11/ 8
NORTHPORT PIER   0413   30     190/  9/ 22 1016.6F
SISTER BAY       0343          200/ 18/ 23   N/A
ALGOMA LAKESHORE 0313          250/ 27/ 32   N/A
KEWAUNEE LAKESHO 0400   30     200/ 15/ 20 1018.0F
SHEBOYGAN LAKESH 0400   32 36  190/ 23/ 27 1020.8F
PORT WASHINGTON  0400   31     200/  9/ 15 1021.3
ATWATER BUOY     0400   31     130/  2/  6 1022.8F
MILWAUKEE LAKESH 0400   31     190/ 13/ 15   N/A
S MID LAKE BUOY  0350   36 43  190/ 23/ 29 1023.8F   6/ 6
KENOSHA   LAKESH 0400   32     190/ 14/ 20 1021.7F
$$

TC  - TEMPERATURE IN CELSIUS
VSB - VISIBILITY IN STATUTE MILES
WCI - WIND CHILL INDEX
HX  - HEAT INDEX



USA.gov is the U.S. government's official web portal to all federal, state and local government web resources and services.